| time (UTC) | temp F | wind direction | speed knots | gust knots | rain 1hr in | rain 24hr in | rain mn in | humidity % | barometer mb |
| 20260906072435 | 70 | 13 | 0.0 | 0.0 | 0.00 | 0.00 | 0.00 | 86 | 1019.2 |
| 20260906071931 | 70 | 13 | 0.0 | 0.0 | 0.00 | 0.00 | 0.00 | 86 | 1018.9 |
| 20260906071427 | 70 | 291 | 0.9 | 0.9 | 0.00 | 0.00 | 0.00 | 86 | 1019.1 |
| 20260906070923 | 71 | 333 | 0.9 | 0.9 | 0.00 | 0.00 | 0.00 | 86 | 1019.1 |
| 20260906070419 | 71 | 322 | 0.9 | 0.9 | 0.00 | 0.00 | 0.00 | 85 | 1019.1 |
| 20260906065915 | 71 | 27 | 0.0 | 0.0 | 0.00 | 0.00 | 0.00 | 85 | 1019.1 |
| 20260906065409 | 71 | 14 | 0.0 | 0.0 | 0.00 | 0.00 | 0.00 | 84 | 1019.1 |
| 20260906064905 | 71 | 25 | 0.0 | 0.0 | 0.00 | 0.00 | 0.00 | 84 | 1019.4 |
| 20260906064401 | 72 | 16 | 0.0 | 0.0 | 0.00 | 0.00 | 0.00 | 84 | 1019.6 |
| 20260906063900 | 72 | 17 | 0.0 | 0.0 | 0.00 | 0.00 | 0.00 | 83 | 1019.7 |
| 20260906063355 | 72 | 14 | 0.0 | 0.0 | 0.00 | 0.00 | 0.00 | 83 | 1019.8 |
| 20260906062850 | 72 | 342 | 0.9 | 0.9 | 0.00 | 0.00 | 0.00 | 82 | 1019.9 |
| 20260906062350 | 72 | 8 | 0.9 | 0.9 | 0.00 | 0.00 | 0.00 | 83 | 1019.9 |
| 20260906061845 | 72 | 17 | 0.0 | 0.9 | 0.00 | 0.00 | 0.00 | 83 | 1020.1 |
| 20260906061342 | 72 | 312 | 0.9 | 0.9 | 0.00 | 0.00 | 0.00 | 82 | 1020.2 |
| 20260906060836 | 72 | 13 | 0.0 | 0.0 | 0.00 | 0.00 | 0.00 | 82 | 1020.0 |
| 20260906060334 | 72 | 335 | 0.9 | 0.9 | 0.00 | 0.00 | 0.00 | 83 | 1020.2 |
| 20260906055830 | 71 | 15 | 0.0 | 0.0 | 0.00 | 0.00 | 0.00 | 84 | 1020.3 |
| 20260906055325 | 71 | 10 | 0.0 | 0.0 | 0.00 | 0.00 | 0.00 | 85 | 1020.3 |
| 20260906054820 | 71 | 13 | 0.0 | 0.0 | 0.00 | 0.00 | 0.00 | 84 | 1020.3 |
| 20260906054315 | 71 | 10 | 0.0 | 0.0 | 0.00 | 0.00 | 0.00 | 85 | 1020.1 |
| 20260906053812 | 70 | 326 | 0.9 | 0.9 | 0.00 | 0.00 | 0.00 | 86 | 1020.3 |
| 20260906053307 | 71 | 335 | 0.0 | 0.9 | 0.00 | 0.00 | 0.00 | 85 | 1020.4 |
| 20260906052802 | 71 | 309 | 0.9 | 0.9 | 0.00 | 0.00 | 0.00 | 85 | 1020.2 |
| 20260906052258 | 71 | 352 | 0.9 | 0.9 | 0.00 | 0.00 | 0.00 | 84 | 1020.3 |
| 20260906051755 | 72 | 15 | 0.0 | 0.0 | 0.00 | 0.00 | 0.00 | 83 | 1020.2 |
| 20260906051254 | 72 | 29 | 0.0 | 0.0 | 0.00 | 0.00 | 0.00 | 82 | 1020.1 |
| 20260906050750 | 72 | 333 | 0.0 | 0.0 | 0.00 | 0.00 | 0.00 | 81 | 1020.3 |
| 20260906050245 | 72 | 38 | 0.0 | 0.0 | 0.00 | 0.00 | 0.00 | 81 | 1020.3 |
| 20260906045744 | 72 | 15 | 0.0 | 0.0 | 0.00 | 0.00 | 0.00 | 81 | 1020.4 |
| 20260906045239 | 72 | 349 | 0.0 | 0.0 | 0.00 | 0.00 | 0.00 | 81 | 1020.3 |
| 20260906044735 | 72 | 35 | 0.9 | 0.9 | 0.00 | 0.00 | 0.00 | 81 | 1020.7 |
| 20260906044229 | 72 | 354 | 0.0 | 0.9 | 0.00 | 0.00 | 0.00 | 81 | 1020.6 |
| 20260906043726 | 72 | 4 | 0.9 | 0.9 | 0.00 | 0.00 | 0.00 | 81 | 1020.6 |
| 20260906043221 | 72 | 346 | 0.9 | 0.9 | 0.00 | 0.00 | 0.00 | 81 | 1020.3 |
| 20260906042721 | 72 | 14 | 0.0 | 0.0 | 0.00 | 0.00 | 0.00 | 81 | 1020.6 |
| 20260906042220 | 72 | 359 | 0.0 | 0.9 | 0.00 | 0.00 | 0.00 | 81 | 1020.6 |
| 20260906041716 | 72 | 14 | 0.0 | 0.0 | 0.00 | 0.00 | 0.00 | 80 | 1020.7 |
| 20260906041211 | 72 | 351 | 0.9 | 0.9 | 0.00 | 0.00 | 0.00 | 80 | 1020.7 |
| 20260906040706 | 72 | 16 | 0.0 | 0.0 | 0.00 | 0.00 | 0.00 | 79 | 1020.7 |
| 20260906040202 | 73 | 16 | 0.0 | 0.0 | 0.00 | 0.00 | 0.00 | 79 | 1020.4 |
| 20260906035657 | 73 | 19 | 0.0 | 0.0 | 0.00 | 0.00 | 0.00 | 79 | 1020.6 |
| 20260906035153 | 73 | 24 | 0.0 | 0.0 | 0.00 | 0.00 | 0.00 | 78 | 1020.7 |
| 20260906034647 | 73 | 17 | 0.0 | 0.0 | 0.00 | 0.00 | 0.00 | 78 | 1020.7 |
| 20260906034142 | 74 | 5 | 0.0 | 0.9 | 0.00 | 0.00 | 0.00 | 78 | 1020.8 |
| 20260906033638 | 73 | 12 | 0.0 | 0.9 | 0.00 | 0.00 | 0.00 | 77 | 1020.8 |
| 20260906033137 | 73 | 12 | 0.0 | 0.9 | 0.00 | 0.00 | 0.00 | 76 | 1020.8 |
| 20260906032635 | 73 | 335 | 0.9 | 0.9 | 0.00 | 0.00 | 0.00 | 76 | 1020.8 |
| 20260906032134 | 73 | 18 | 0.0 | 0.0 | 0.00 | 0.00 | 0.00 | 76 | 1020.7 |
| 20260906031629 | 73 | 14 | 0.0 | 0.0 | 0.00 | 0.00 | 0.00 | 76 | 1020.6 |
| 20260906031125 | 73 | 13 | 0.0 | 0.0 | 0.00 | 0.00 | 0.00 | 76 | 1020.8 |
| 20260906030624 | 73 | 22 | 0.0 | 0.0 | 0.00 | 0.00 | 0.00 | 76 | 1020.8 |
| 20260906030120 | 73 | 15 | 0.0 | 0.0 | 0.00 | 0.00 | 0.00 | 76 | 1020.9 |
| 20260906025619 | 73 | 15 | 0.0 | 0.0 | 0.00 | 0.00 | 0.00 | 76 | 1020.8 |
| 20260906025118 | 73 | 7 | 0.0 | 0.0 | 0.00 | 0.00 | 0.00 | 76 | 1020.8 |
| 20260906024613 | 73 | 17 | 0.0 | 0.0 | 0.00 | 0.00 | 0.00 | 76 | 1020.8 |
| 20260906024113 | 74 | 348 | 0.9 | 0.9 | 0.00 | 0.00 | 0.00 | 76 | 1020.9 |
| 20260906023604 | 74 | 8 | 0.0 | 0.9 | 0.00 | 0.00 | 0.00 | 74 | 1020.8 |
| 20260906023103 | 74 | 7 | 0.0 | 0.0 | 0.00 | 0.00 | 0.00 | 75 | 1020.7 |
| 20260906022558 | 74 | 13 | 0.0 | 0.0 | 0.00 | 0.00 | 0.00 | 75 | 1020.7 |
| 20260906022054 | 74 | 13 | 0.0 | 0.0 | 0.00 | 0.00 | 0.00 | 75 | 1020.7 |
| 20260906021550 | 74 | 19 | 0.0 | 0.0 | 0.00 | 0.00 | 0.00 | 74 | 1020.6 |
| 20260906021049 | 74 | 25 | 0.0 | 0.0 | 0.00 | 0.00 | 0.00 | 73 | 1020.7 |
| 20260906020548 | 74 | 18 | 0.0 | 0.0 | 0.00 | 0.00 | 0.00 | 73 | 1020.6 |
| 20260906020048 | 74 | 20 | 0.0 | 0.0 | 0.00 | 0.00 | 0.00 | 73 | 1020.4 |
| 20260906015547 | 74 | 19 | 0.0 | 0.0 | 0.00 | 0.00 | 0.00 | 72 | 1020.6 |
| 20260906015047 | 74 | 10 | 0.0 | 0.0 | 0.00 | 0.00 | 0.00 | 72 | 1020.3 |
| 20260906014542 | 74 | 15 | 0.0 | 0.0 | 0.00 | 0.00 | 0.00 | 72 | 1020.6 |
| 20260906014038 | 73 | 27 | 0.0 | 0.0 | 0.00 | 0.00 | 0.00 | 72 | 1020.7 |
| 20260906013533 | 73 | 19 | 0.0 | 0.0 | 0.00 | 0.00 | 0.00 | 73 | 1020.6 |
| 20260906013029 | 73 | 299 | 0.9 | 0.9 | 0.00 | 0.00 | 0.00 | 73 | 1020.2 |
| 20260906012524 | 73 | 21 | 0.0 | 0.0 | 0.00 | 0.00 | 0.00 | 73 | 1020.3 |
| 20260906012023 | 73 | 3 | 0.9 | 0.9 | 0.00 | 0.00 | 0.00 | 73 | 1020.3 |
| 20260906011519 | 74 | 1 | 0.0 | 0.9 | 0.00 | 0.00 | 0.00 | 71 | 1020.3 |
| 20260906011018 | 73 | 322 | 0.9 | 0.9 | 0.00 | 0.00 | 0.00 | 72 | 1020.1 |
| 20260906010514 | 73 | 345 | 0.0 | 0.9 | 0.00 | 0.00 | 0.00 | 72 | 1020.2 |
| 20260906010011 | 75 | 352 | 0.0 | 0.9 | 0.00 | 0.00 | 0.00 | 72 | 1020.1 |
| 20260906005509 | 75 | 0 | 0.9 | 0.9 | 0.00 | 0.00 | 0.00 | 69 | 1020.1 |
| 20260906005008 | 75 | 40 | 0.0 | 0.0 | 0.00 | 0.00 | 0.00 | 68 | 1020.0 |
| 20260906004503 | 75 | 25 | 0.0 | 0.0 | 0.00 | 0.00 | 0.00 | 68 | 1019.9 |
| 20260906003958 | 75 | 86 | 0.9 | 0.9 | 0.00 | 0.00 | 0.00 | 68 | 1019.9 |
| 20260906003453 | 75 | 48 | 0.0 | 0.9 | 0.00 | 0.00 | 0.00 | 69 | 1019.7 |
| 20260906002948 | 75 | 80 | 0.9 | 0.9 | 0.00 | 0.00 | 0.00 | 68 | 1019.7 |
| 20260906002448 | 75 | 332 | 0.9 | 0.9 | 0.00 | 0.00 | 0.00 | 70 | 1019.6 |
| 20260906001943 | 75 | 50 | 0.0 | 0.0 | 0.00 | 0.00 | 0.00 | 67 | 1019.6 |
| 20260906001440 | 75 | 16 | 0.0 | 0.0 | 0.00 | 0.00 | 0.00 | 68 | 1019.6 |
| 20260906000934 | 75 | 44 | 0.0 | 0.0 | 0.00 | 0.00 | 0.00 | 66 | 1019.3 |
| 20260906000430 | 75 | 37 | 0.0 | 0.0 | 0.00 | 0.00 | 0.00 | 67 | 1019.3 |
| 20260905235925 | 75 | 8 | 0.0 | 0.0 | 0.00 | 0.00 | 0.00 | 68 | 1019.2 |
| 20260905235424 | 75 | 6 | 0.0 | 0.0 | 0.00 | 0.00 | 0.00 | 69 | 1019.1 |
| 20260905234919 | 75 | 345 | 0.0 | 0.9 | 0.00 | 0.00 | 0.00 | 69 | 1019.2 |
| 20260905234414 | 76 | 15 | 0.0 | 0.0 | 0.00 | 0.00 | 0.00 | 67 | 1019.2 |
| 20260905233909 | 76 | 16 | 0.0 | 0.0 | 0.00 | 0.00 | 0.00 | 68 | 1019.2 |
| 20260905233404 | 76 | 3 | 0.0 | 0.0 | 0.00 | 0.00 | 0.00 | 66 | 1019.4 |
| 20260905232903 | 76 | 6 | 0.0 | 0.0 | 0.00 | 0.00 | 0.00 | 67 | 1019.4 |
| 20260905232400 | 77 | 2 | 0.0 | 0.9 | 0.00 | 0.00 | 0.00 | 67 | 1019.4 |
| 20260905231855 | 77 | 353 | 0.0 | 0.9 | 0.00 | 0.00 | 0.00 | 67 | 1019.2 |
| 20260905231350 | 78 | 26 | 0.0 | 0.0 | 0.00 | 0.00 | 0.00 | 64 | 1019.2 |
| 20260905230847 | 78 | 19 | 0.0 | 0.0 | 0.00 | 0.00 | 0.00 | 64 | 1019.2 |
| 20260905230344 | 78 | 321 | 0.9 | 0.9 | 0.00 | 0.00 | 0.00 | 65 | 1019.2 |
| 20260905225843 | 79 | 2 | 0.0 | 0.9 | 0.00 | 0.00 | 0.00 | 64 | 1019.3 |
| 20260905225338 | 79 | 352 | 0.9 | 0.9 | 0.00 | 0.00 | 0.00 | 64 | 1019.3 |
| 20260905224833 | 80 | 325 | 0.9 | 0.9 | 0.00 | 0.00 | 0.00 | 63 | 1019.2 |
| 20260905224329 | 80 | 4 | 0.0 | 0.0 | 0.00 | 0.00 | 0.00 | 63 | 1019.4 |
| 20260905223824 | 80 | 343 | 0.9 | 0.9 | 0.00 | 0.00 | 0.00 | 63 | 1019.3 |
| 20260905223322 | 81 | 23 | 0.0 | 0.0 | 0.00 | 0.00 | 0.00 | 60 | 1019.3 |
| 20260905222816 | 81 | 38 | 0.0 | 0.0 | 0.00 | 0.00 | 0.00 | 61 | 1019.4 |
| 20260905222315 | 81 | 50 | 0.0 | 0.9 | 0.00 | 0.00 | 0.00 | 58 | 1019.4 |
| 20260905221811 | 82 | 38 | 0.0 | 0.0 | 0.00 | 0.00 | 0.00 | 57 | 1019.4 |
| 20260905221308 | 82 | 28 | 0.0 | 0.9 | 0.00 | 0.00 | 0.00 | 55 | 1019.4 |
| 20260905220803 | 82 | 40 | 0.0 | 0.0 | 0.00 | 0.00 | 0.00 | 54 | 1019.1 |
| 20260905220300 | 82 | 5 | 0.0 | 0.0 | 0.00 | 0.00 | 0.00 | 55 | 1019.3 |
| 20260905215759 | 82 | 18 | 0.0 | 0.9 | 0.00 | 0.00 | 0.00 | 54 | 1019.3 |
| 20260905215255 | 82 | 315 | 0.9 | 0.9 | 0.00 | 0.00 | 0.00 | 53 | 1019.3 |
| 20260905214750 | 83 | 33 | 0.9 | 0.9 | 0.00 | 0.00 | 0.00 | 53 | 1019.3 |
| 20260905214246 | 83 | 37 | 0.0 | 0.0 | 0.00 | 0.00 | 0.00 | 52 | 1019.2 |
| 20260905213741 | 83 | 31 | 0.0 | 0.0 | 0.00 | 0.00 | 0.00 | 56 | 1019.2 |
| 20260905213237 | 83 | 21 | 0.9 | 1.7 | 0.00 | 0.00 | 0.00 | 52 | 1019.2 |
| 20260905212732 | 83 | 24 | 0.0 | 0.9 | 0.00 | 0.00 | 0.00 | 50 | 1019.1 |
| 20260905212231 | 83 | 23 | 0.0 | 0.0 | 0.00 | 0.00 | 0.00 | 50 | 1019.1 |
| 20260905211731 | 84 | 296 | 1.7 | 1.7 | 0.00 | 0.00 | 0.00 | 50 | 1018.9 |
| 20260905211226 | 84 | 27 | 0.9 | 0.9 | 0.00 | 0.00 | 0.00 | 51 | 1019.2 |
| 20260905210723 | 84 | 255 | 0.9 | 2.6 | 0.00 | 0.00 | 0.00 | 50 | 1018.8 |
| 20260905210223 | 84 | 286 | 0.0 | 1.7 | 0.00 | 0.00 | 0.00 | 61 | 1019.3 |
| 20260905205721 | 84 | 30 | 0.9 | 1.7 | 0.00 | 0.00 | 0.00 | 59 | 1018.9 |
| 20260905205216 | 85 | 34 | 0.0 | 0.0 | 0.00 | 0.00 | 0.00 | 57 | 1019.3 |
| 20260905204716 | 85 | 31 | 0.0 | 0.0 | 0.00 | 0.00 | 0.00 | 55 | 1019.3 |
| 20260905204212 | 86 | 35 | 0.0 | 0.0 | 0.00 | 0.00 | 0.00 | 58 | 1019.3 |
| 20260905203712 | 87 | 19 | 1.7 | 1.7 | 0.00 | 0.00 | 0.00 | 56 | 1019.2 |
| 20260905203207 | 86 | 30 | 0.0 | 0.0 | 0.00 | 0.00 | 0.00 | 54 | 1019.3 |
| 20260905202702 | 86 | 41 | 0.0 | 0.9 | 0.00 | 0.00 | 0.00 | 53 | 1019.3 |
| 20260905202158 | 85 | 274 | 0.9 | 1.7 | 0.00 | 0.00 | 0.00 | 53 | 1019.3 |
| 20260905201653 | 85 | 9 | 0.9 | 0.9 | 0.00 | 0.00 | 0.00 | 55 | 1019.4 |
| 20260905201153 | 84 | 13 | 0.0 | 0.9 | 0.00 | 0.00 | 0.00 | 55 | 1019.4 |
| 20260905200648 | 84 | 39 | 1.7 | 3.5 | 0.00 | 0.00 | 0.00 | 53 | 1019.3 |
| 20260905200143 | 84 | 13 | 0.9 | 0.9 | 0.00 | 0.00 | 0.00 | 56 | 1019.5 |
| 20260905195641 | 83 | 29 | 0.0 | 0.9 | 0.00 | 0.00 | 0.00 | 54 | 1019.5 |
| 20260905195137 | 82 | 288 | 0.0 | 0.9 | 0.00 | 0.00 | 0.00 | 56 | 1019.4 |
| 20260905194632 | 81 | 321 | 1.7 | 1.7 | 0.00 | 0.00 | 0.00 | 56 | 1019.4 |
| 20260905194131 | 80 | 23 | 0.9 | 0.9 | 0.00 | 0.00 | 0.00 | 58 | 1019.5 |
| 20260905193626 | 79 | 342 | 0.9 | 1.7 | 0.00 | 0.00 | 0.00 | 60 | 1019.4 |
| 20260905193121 | 78 | 28 | 0.0 | 0.0 | 0.00 | 0.00 | 0.00 | 65 | 1019.4 |
| 20260905192617 | 77 | 23 | 0.0 | 0.9 | 0.00 | 0.00 | 0.00 | 65 | 1019.3 |
| 20260905192113 | 77 | 331 | 0.9 | 0.9 | 0.00 | 0.00 | 0.00 | 73 | 1019.4 |
| 20260905191612 | 77 | 39 | 0.0 | 0.0 | 0.00 | 0.00 | 0.00 | 73 | 1019.4 |
| 20260905191111 | 77 | 28 | 0.0 | 0.9 | 0.00 | 0.00 | 0.00 | 67 | 1019.5 |
| 20260905190609 | 76 | 48 | 0.0 | 0.0 | 0.00 | 0.00 | 0.00 | 73 | 1018.9 |
| 20260905190108 | 76 | 32 | 0.0 | 0.9 | 0.00 | 0.00 | 0.00 | 72 | 1018.9 |
| 20260905185607 | 77 | 20 | 0.0 | 0.0 | 0.00 | 0.00 | 0.00 | 73 | 1019.1 |
| 20260905185102 | 76 | 37 | 0.0 | 0.0 | 0.00 | 0.00 | 0.00 | 66 | 1018.9 |
| 20260905184557 | 76 | 23 | 0.9 | 1.7 | 0.00 | 0.00 | 0.00 | 67 | 1018.8 |
| 20260905184056 | 75 | 24 | 2.6 | 2.6 | 0.00 | 0.00 | 0.00 | 68 | 1018.8 |
| 20260905183555 | 75 | 39 | 0.9 | 1.7 | 0.00 | 0.00 | 0.00 | 76 | 1019.2 |
| 20260905183051 | 74 | 36 | 0.0 | 0.0 | 0.00 | 0.00 | 0.00 | 78 | 1019.3 |
| 20260905182550 | 73 | 45 | 0.0 | 0.0 | 0.00 | 0.00 | 0.00 | 81 | 1019.5 |
| 20260905182050 | 73 | 48 | 0.0 | 0.0 | 0.00 | 0.00 | 0.00 | 81 | 1019.7 |
| 20260905181545 | 73 | 47 | 0.0 | 0.9 | 0.00 | 0.00 | 0.00 | 79 | 1019.9 |
| 20260905181045 | 72 | 201 | 0.9 | 1.7 | 0.00 | 0.00 | 0.00 | 77 | 1020.3 |
| 20260905180545 | 72 | 352 | 0.0 | 0.0 | 0.00 | 0.00 | 0.00 | 75 | 1020.6 |
| 20260905180040 | 73 | 22 | 0.0 | 0.9 | 0.00 | 0.00 | 0.00 | 74 | 1020.7 |
| 20260905175539 | 73 | 333 | 1.7 | 1.7 | 0.00 | 0.00 | 0.00 | 72 | 1020.6 |
| 20260905175035 | 74 | 175 | 1.7 | 2.6 | 0.00 | 0.00 | 0.00 | 70 | 1020.8 |
| 20260905174530 | 74 | 33 | 0.9 | 1.7 | 0.00 | 0.00 | 0.00 | 69 | 1020.8 |
| 20260905174026 | 75 | 24 | 3.5 | 5.2 | 0.00 | 0.00 | 0.00 | 68 | 1020.9 |
| 20260905173522 | 76 | 25 | 0.9 | 1.7 | 0.00 | 0.00 | 0.00 | 65 | 1021.2 |
| 20260905173017 | 77 | 98 | 2.6 | 3.5 | 0.00 | 0.00 | 0.00 | 62 | 1021.4 |
| 20260905172515 | 78 | 135 | 2.6 | 2.6 | 0.00 | 0.00 | 0.00 | 61 | 1021.4 |
| 20260905172011 | 78 | 351 | 1.7 | 1.7 | 0.00 | 0.00 | 0.00 | 61 | 1021.7 |
| 20260905171508 | 79 | 276 | 2.6 | 3.5 | 0.00 | 0.00 | 0.00 | 59 | 1022.0 |
| 20260905171003 | 80 | 52 | 1.7 | 2.6 | 0.00 | 0.00 | 0.00 | 60 | 1022.2 |
| 20260905170500 | 80 | 47 | 0.9 | 1.7 | 0.00 | 0.00 | 0.00 | 61 | 1022.4 |
| 20260905170000 | 82 | 83 | 2.6 | 3.5 | 0.00 | 0.00 | 0.00 | 61 | 1022.3 |
| 20260905165455 | 83 | 24 | 2.6 | 3.5 | 0.00 | 0.00 | 0.00 | 62 | 1022.4 |
| 20260905164950 | 84 | 116 | 1.7 | 1.7 | 0.00 | 0.00 | 0.00 | 66 | 1022.3 |
| 20260905164449 | 84 | 27 | 0.9 | 0.9 | 0.00 | 0.00 | 0.00 | 63 | 1022.1 |
| 20260905163944 | 84 | 28 | 0.9 | 0.9 | 0.00 | 0.00 | 0.00 | 63 | 1022.3 |
| 20260905163441 | 85 | 46 | 0.9 | 0.9 | 0.00 | 0.00 | 0.00 | 61 | 1022.4 |
| 20260905162937 | 85 | 34 | 0.9 | 1.7 | 0.00 | 0.00 | 0.00 | 59 | 1022.2 |
| 20260905162432 | 86 | 57 | 0.9 | 0.9 | 0.00 | 0.00 | 0.00 | 60 | 1022.2 |
| 20260905161927 | 86 | 39 | 0.0 | 0.0 | 0.00 | 0.00 | 0.00 | 61 | 1021.8 |
| 20260905161426 | 86 | 25 | 0.0 | 0.0 | 0.00 | 0.00 | 0.00 | 59 | 1021.8 |
| 20260905160924 | 86 | 30 | 1.7 | 1.7 | 0.00 | 0.00 | 0.00 | 61 | 1021.8 |
| 20260905160418 | 86 | 253 | 1.7 | 1.7 | 0.00 | 0.00 | 0.00 | 61 | 1021.7 |
| 20260905155918 | 86 | 216 | 2.6 | 3.5 | 0.00 | 0.00 | 0.00 | 59 | 1021.8 |
| 20260905155418 | 86 | 24 | 1.7 | 2.6 | 0.00 | 0.00 | 0.00 | 61 | 1022.0 |
| 20260905154917 | 85 | 40 | 1.7 | 1.7 | 0.00 | 0.00 | 0.00 | 61 | 1022.1 |
| 20260905154413 | 85 | 30 | 0.9 | 0.9 | 0.00 | 0.00 | 0.00 | 62 | 1022.1 |
| 20260905153908 | 86 | 43 | 2.6 | 2.6 | 0.00 | 0.00 | 0.00 | 60 | 1022.1 |
| 20260905153404 | 85 | 24 | 1.7 | 2.6 | 0.00 | 0.00 | 0.00 | 60 | 1022.2 |
| 20260905152904 | 85 | 359 | 1.7 | 1.7 | 0.00 | 0.00 | 0.00 | 62 | 1022.1 |
| 20260905152403 | 85 | 208 | 0.9 | 0.9 | 0.00 | 0.00 | 0.00 | 65 | 1021.8 |
| 20260905151859 | 84 | 94 | 1.7 | 2.6 | 0.00 | 0.00 | 0.00 | 64 | 1021.7 |
| 20260905151355 | 84 | 33 | 0.0 | 0.9 | 0.00 | 0.00 | 0.00 | 65 | 1021.8 |
| 20260905150854 | 83 | 42 | 0.9 | 0.9 | 0.00 | 0.00 | 0.00 | 65 | 1021.5 |
| 20260905150348 | 83 | 30 | 0.0 | 0.0 | 0.00 | 0.00 | 0.00 | 68 | 1021.5 |
| 20260905145846 | 83 | 34 | 0.0 | 0.0 | 0.00 | 0.00 | 0.00 | 73 | 1021.5 |
| 20260905145346 | 82 | 25 | 0.9 | 1.7 | 0.00 | 0.00 | 0.00 | 69 | 1021.5 |
| 20260905144845 | 82 | 28 | 1.7 | 1.7 | 0.00 | 0.00 | 0.00 | 72 | 1021.5 |
| 20260905144341 | 82 | 32 | 0.0 | 0.0 | 0.00 | 0.00 | 0.00 | 70 | 1021.7 |
| 20260905143839 | 82 | 313 | 0.0 | 0.9 | 0.00 | 0.00 | 0.00 | 71 | 1021.5 |
| 20260905143334 | 82 | 33 | 0.9 | 1.7 | 0.00 | 0.00 | 0.00 | 70 | 1021.6 |
| 20260905142833 | 81 | 28 | 0.9 | 1.7 | 0.00 | 0.00 | 0.00 | 73 | 1021.7 |
| 20260905142332 | 81 | 188 | 1.7 | 1.7 | 0.00 | 0.00 | 0.00 | 73 | 1021.7 |
| 20260905141829 | 80 | 26 | 0.0 | 0.0 | 0.00 | 0.00 | 0.00 | 73 | 1021.7 |
| 20260905141324 | 80 | 28 | 0.9 | 0.9 | 0.00 | 0.00 | 0.00 | 74 | 1021.7 |
| 20260905140820 | 80 | 27 | 0.9 | 0.9 | 0.00 | 0.00 | 0.00 | 74 | 1021.6 |
| 20260905140319 | 80 | 27 | 0.0 | 0.0 | 0.00 | 0.00 | 0.00 | 75 | 1021.6 |
| 20260905135818 | 80 | 32 | 0.0 | 0.0 | 0.00 | 0.00 | 0.00 | 74 | 1021.6 |
| 20260905135314 | 80 | 338 | 0.9 | 0.9 | 0.00 | 0.00 | 0.00 | 73 | 1021.6 |
| 20260905134809 | 80 | 32 | 0.0 | 0.0 | 0.00 | 0.00 | 0.00 | 75 | 1021.5 |
| 20260905134308 | 79 | 28 | 0.0 | 0.0 | 0.00 | 0.00 | 0.00 | 74 | 1021.7 |
| 20260905133808 | 79 | 18 | 0.0 | 0.0 | 0.00 | 0.00 | 0.00 | 75 | 1021.7 |
| 20260905133304 | 79 | 38 | 0.0 | 0.0 | 0.00 | 0.00 | 0.00 | 76 | 1021.6 |
| 20260905132803 | 79 | 21 | 0.0 | 0.9 | 0.00 | 0.00 | 0.00 | 75 | 1021.7 |
| 20260905132259 | 79 | 224 | 0.9 | 0.9 | 0.00 | 0.00 | 0.00 | 76 | 1021.7 |
| 20260905131753 | 79 | 19 | 0.0 | 0.0 | 0.00 | 0.00 | 0.00 | 76 | 1022.0 |
| 20260905131249 | 78 | 5 | 0.0 | 0.9 | 0.00 | 0.00 | 0.00 | 76 | 1021.7 |
| 20260905130743 | 78 | 22 | 0.0 | 0.9 | 0.00 | 0.00 | 0.00 | 75 | 1021.8 |
| 20260905130243 | 78 | 282 | 1.7 | 1.7 | 0.00 | 0.00 | 0.00 | 75 | 1022.1 |
| 20260905125738 | 78 | 13 | 0.9 | 0.9 | 0.00 | 0.00 | 0.00 | 76 | 1022.0 |
| 20260905125233 | 78 | 23 | 0.0 | 0.0 | 0.00 | 0.00 | 0.00 | 77 | 1021.8 |
| 20260905124730 | 78 | 19 | 0.0 | 0.0 | 0.00 | 0.00 | 0.00 | 77 | 1021.8 |
| 20260905124225 | 78 | 2 | 0.0 | 0.0 | 0.00 | 0.00 | 0.00 | 77 | 1021.8 |
| 20260905123720 | 78 | 120 | 0.9 | 1.7 | 0.00 | 0.00 | 0.00 | 76 | 1021.7 |
| 20260905123217 | 78 | 300 | 0.9 | 0.9 | 0.00 | 0.00 | 0.00 | 75 | 1021.7 |
| 20260905122717 | 78 | 334 | 0.9 | 0.9 | 0.00 | 0.00 | 0.00 | 76 | 1021.7 |
| 20260905122211 | 78 | 24 | 0.0 | 0.0 | 0.00 | 0.00 | 0.00 | 75 | 1022.0 |
| 20260905121706 | 77 | 17 | 1.7 | 1.7 | 0.00 | 0.00 | 0.00 | 75 | 1021.6 |
| 20260905121202 | 77 | 36 | 0.9 | 0.9 | 0.00 | 0.00 | 0.00 | 76 | 1021.5 |
| 20260905120701 | 76 | 30 | 0.9 | 1.7 | 0.00 | 0.00 | 0.00 | 77 | 1021.5 |
| 20260905120155 | 75 | 47 | 0.9 | 0.9 | 0.00 | 0.00 | 0.00 | 79 | 1021.6 |
| 20260905115655 | 75 | 57 | 0.0 | 0.0 | 0.00 | 0.00 | 0.00 | 80 | 1021.4 |
| 20260905115151 | 75 | 53 | 0.0 | 0.0 | 0.00 | 0.00 | 0.00 | 80 | 1021.5 |
| 20260905114650 | 75 | 21 | 0.9 | 1.7 | 0.00 | 0.00 | 0.00 | 79 | 1021.2 |
| 20260905114149 | 75 | 35 | 0.0 | 0.0 | 0.00 | 0.00 | 0.00 | 80 | 1021.4 |
| 20260905113643 | 75 | 47 | 0.0 | 0.0 | 0.00 | 0.00 | 0.00 | 79 | 1021.3 |
| 20260905113139 | 74 | 36 | 0.0 | 0.0 | 0.00 | 0.00 | 0.00 | 78 | 1021.3 |
| 20260905112639 | 74 | 316 | 0.9 | 0.9 | 0.00 | 0.00 | 0.00 | 79 | 1021.3 |
| 20260905112135 | 74 | 20 | 0.0 | 0.0 | 0.00 | 0.00 | 0.00 | 79 | 1021.3 |
| 20260905111635 | 75 | 3 | 0.0 | 0.0 | 0.00 | 0.00 | 0.00 | 78 | 1021.0 |
| 20260905111134 | 76 | 36 | 0.9 | 0.9 | 0.00 | 0.00 | 0.00 | 76 | 1021.1 |
| 20260905110633 | 77 | 84 | 0.0 | 0.9 | 0.00 | 0.00 | 0.00 | 74 | 1021.1 |
| 20260905110128 | 77 | 343 | 0.9 | 0.9 | 0.00 | 0.00 | 0.00 | 73 | 1021.1 |
| 20260905105623 | 77 | 32 | 0.0 | 0.0 | 0.00 | 0.00 | 0.00 | 73 | 1021.1 |
| 20260905105122 | 77 | 24 | 0.0 | 0.0 | 0.00 | 0.00 | 0.00 | 74 | 1020.9 |
| 20260905104618 | 77 | 192 | 0.9 | 1.7 | 0.00 | 0.00 | 0.00 | 73 | 1021.0 |
| 20260905104113 | 77 | 117 | 0.9 | 0.9 | 0.00 | 0.00 | 0.00 | 74 | 1021.0 |
| 20260905103608 | 76 | 238 | 1.7 | 2.6 | 0.00 | 0.00 | 0.00 | 74 | 1020.9 |
| 20260905103104 | 76 | 8 | 1.7 | 1.7 | 0.00 | 0.00 | 0.00 | 75 | 1021.0 |
| 20260905102559 | 75 | 29 | 0.9 | 0.9 | 0.00 | 0.00 | 0.00 | 76 | 1020.9 |
| 20260905102056 | 75 | 23 | 0.9 | 0.9 | 0.00 | 0.00 | 0.00 | 77 | 1021.0 |
| 20260905101554 | 74 | 1 | 0.0 | 0.0 | 0.00 | 0.00 | 0.00 | 78 | 1020.9 |
| 20260905101053 | 74 | 78 | 0.9 | 0.9 | 0.00 | 0.00 | 0.00 | 79 | 1021.0 |
| 20260905100549 | 74 | 4 | 0.0 | 0.0 | 0.00 | 0.00 | 0.00 | 78 | 1020.8 |
| 20260905100049 | 75 | 344 | 0.9 | 0.9 | 0.00 | 0.00 | 0.00 | 78 | 1021.0 |
| 20260905095543 | 75 | 11 | 0.0 | 0.9 | 0.00 | 0.00 | 0.00 | 78 | 1020.9 |
| 20260905095039 | 75 | 83 | 0.9 | 0.9 | 0.00 | 0.00 | 0.00 | 77 | 1021.0 |
| 20260905094533 | 75 | 356 | 0.0 | 0.0 | 0.00 | 0.00 | 0.00 | 77 | 1020.7 |
| 20260905094032 | 76 | 15 | 0.0 | 0.0 | 0.00 | 0.00 | 0.00 | 75 | 1020.6 |
| 20260905093527 | 77 | 21 | 0.0 | 0.0 | 0.00 | 0.00 | 0.00 | 74 | 1020.8 |
| 20260905093024 | 76 | 269 | 1.7 | 1.7 | 0.00 | 0.00 | 0.00 | 74 | 1020.7 |
| 20260905092518 | 76 | 34 | 0.0 | 0.9 | 0.00 | 0.00 | 0.00 | 75 | 1020.8 |
| 20260905092014 | 75 | 316 | 1.7 | 1.7 | 0.00 | 0.00 | 0.00 | 76 | 1020.8 |
| 20260905091514 | 76 | 13 | 0.0 | 0.0 | 0.00 | 0.00 | 0.00 | 76 | 1020.7 |
| 20260905091013 | 76 | 342 | 0.9 | 0.9 | 0.00 | 0.00 | 0.00 | 75 | 1020.8 |
| 20260905090513 | 75 | 30 | 0.0 | 0.9 | 0.00 | 0.00 | 0.00 | 76 | 1020.8 |
| 20260905090008 | 74 | 284 | 0.9 | 0.9 | 0.00 | 0.00 | 0.00 | 78 | 1020.9 |
| 20260905085507 | 74 | 341 | 0.9 | 0.9 | 0.00 | 0.00 | 0.00 | 79 | 1021.1 |
| 20260905085003 | 74 | 285 | 1.7 | 1.7 | 0.00 | 0.00 | 0.00 | 79 | 1020.8 |
| 20260905084502 | 74 | 11 | 0.0 | 0.0 | 0.00 | 0.00 | 0.00 | 79 | 1021.0 |
| 20260905083957 | 74 | 15 | 0.0 | 0.0 | 0.00 | 0.00 | 0.00 | 78 | 1021.2 |
| 20260905083453 | 74 | 4 | 0.0 | 0.0 | 0.00 | 0.00 | 0.00 | 79 | 1021.1 |
| 20260905082948 | 75 | 16 | 0.9 | 0.9 | 0.00 | 0.00 | 0.00 | 78 | 1021.4 |
| 20260905082444 | 75 | 27 | 0.9 | 1.7 | 0.00 | 0.00 | 0.00 | 76 | 1021.2 |
| 20260905081945 | 75 | 24 | 0.0 | 0.0 | 0.00 | 0.00 | 0.00 | 76 | 1021.1 |
| 20260905081439 | 76 | 337 | 0.9 | 0.9 | 0.00 | 0.00 | 0.00 | 76 | 1021.3 |
| 20260905080939 | 76 | 21 | 0.0 | 0.0 | 0.00 | 0.00 | 0.00 | 75 | 1021.3 |
| 20260905080433 | 76 | 26 | 0.0 | 0.0 | 0.00 | 0.00 | 0.00 | 75 | 1021.3 |
| 20260905075932 | 76 | 21 | 0.9 | 1.7 | 0.00 | 0.00 | 0.00 | 76 | 1021.6 |
| 20260905075427 | 76 | 17 | 0.0 | 0.0 | 0.00 | 0.00 | 0.00 | 76 | 1021.4 |
| 20260905074926 | 76 | 306 | 0.9 | 1.7 | 0.00 | 0.00 | 0.00 | 76 | 1021.4 |
| 20260905074422 | 76 | 292 | 1.7 | 1.7 | 0.00 | 0.00 | 0.00 | 77 | 1021.5 |
| 20260905073917 | 75 | 36 | 0.9 | 0.9 | 0.00 | 0.00 | 0.00 | 78 | 1021.6 |
| 20260905073412 | 75 | 0 | 0.0 | 0.9 | 0.00 | 0.00 | 0.00 | 77 | 1021.7 |
| 20260905072908 | 75 | 2 | 0.0 | 0.0 | 0.00 | 0.00 | 0.00 | 77 | 1021.6 |